Hourly Data Report for August 11, 2022

HAY RIVER A
NORTHWEST TERRITORIES
Current Station Operator: NAVCAN

60°50'23.000" N
115°46'58.000" W
164.90 m
2202401
71935
YHY

Download Data

Hourly Data (August 2022)
Hourly Data Report for August 11, 2022
TIME
LST
Temp Definition
°C
Dew Point Definition
°C
Rel Hum Definition
%
Precip. Amount Definition
mm

Wind Dir Definition
10's deg

Wind Spd Definition
km/h
Visibility Definition
km
Stn Press Definition
kPa
Hmdx Definition


Wind Chill Definition


Weather Definition


00:00 13.5 6.9 64   1 10 24.1 99.55     LegendNANA
01:00 12.2 8.1 76   33 14 19.3 99.67     Rain
02:00 10.4 6.8 78   34 13 19.3 99.81     Rain
03:00 10.5 6.8 78   33 12 24.1 99.87     LegendNANA
04:00 10.3 6.4 76   33 9 24.1 99.88     LegendNANA
05:00 11.1 6.5 73   34 12 24.1 99.92     Mostly Cloudy
06:00 11.1 6.9 75   34 11 24.1 99.95     LegendNANA
07:00 11.9 6.6 70   34 10 24.1 100.01     LegendNANA
08:00 12.3 7.2 71   33 10 24.1 100.06     Mainly Clear
09:00 13.4 7.1 65   34 10 24.1 100.10     LegendNANA
10:00 14.1 6.4 60   32 13 24.1 100.13     LegendNANA
11:00 14.4 6.0 57   32 14 24.1 100.13     Mainly Clear
12:00 15.1 4.5 49   33 8 24.1 100.08     LegendNANA
13:00 16.1 4.8 47   31 9 24.1 100.03     LegendNANA
14:00 17.2 5.2 45   31 11 24.1 99.99     Mainly Clear
15:00 17.7 5.5 44   1 7 24.1 99.99     LegendNANA
16:00 18.1 6.1 45   33 5 24.1 99.96     LegendNANA
17:00 17.6 7.0 50   8 9 24.1 99.93     Mainly Clear
18:00 17.3 6.7 50   7 8 24.1 99.88     LegendNANA
19:00 16.3 7.5 55   9 9 24.1 99.83     LegendNANA
20:00 13.5 8.0 69   10 9 24.1 99.80     Mainly Clear
21:00 13.1 7.5 69   14 4 24.1 99.78     LegendNANA
22:00 12.9 5.8 62   15 8 24.1 99.78     LegendNANA
23:00 11.6 4.7 62   18 11 24.1 99.78     Mostly Cloudy

Notes on Data Quality.

Legend

  • E = Estimated
  • M = Missing
  • NA = Not Available*
  • [empty] = Indicates an unobserved value
Date modified: